Location: DARK SKY Beskydy - Park tmavé oblohy, www.darkskybeskydy.cz
(49.4926°N, 18.5016°E)
Time: 14:46:05
(UTC+01:00)

Vanguard 1 - Pass Details

Date: 15 November 2025
Orbit: 650 x 3821 km, 34.2° (Epoch: 07 December)

Event Time Altitude Azimuth Distance (km) Brightness Sun altitude
Rises 20:32:22 0° 269° (W) 7,803 15.3 -43.0°
Reaches altitude 10° 20:37:56 10° 264° (W) 6,896 14.8 -43.8°
Maximum altitude 20:58:46 44° 203° (SSW) 4,292 13.0 -46.8°
Enters shadow 21:00:13 44° 195° (SSW) 4,239 12.9 -47.0°
